Location: Arran
(51.9410°N, 101.7372°W)
Time: 07:21:47
(UTC+00:00)

SWISSCUBE - Pass Details

Date: 21 May 2025
Orbit: 685 x 693 km, 98.4° (Epoch: 20 June)

Event Time Altitude Azimuth Distance (km) Brightness Sun altitude
Rises 06:32:02 0° 10° (N) 3,078 ? -17.8°
Reaches altitude 10° 06:34:21 10° 5° (N) 2,158 ? -17.8°
Maximum altitude 06:38:51 45° 293° (WNW) 943 ? -17.8°
Enters shadow 06:41:48 20° 230° (SW) 1,588 ? -17.8°
